User: anonymous   Login
Location: Unspecified
(0.0000°N, 0.0000°E)
Time: 18:50:52
(UTC+00:00)
Language:

LEMUR 2 THERESACONDOR - Orbit

View from above orbital plane
View from above orbital plane
View from above satellite
View from above satellite

Ground track
Ground track

The orbit data is extracted from the following two-line orbital elements,

1 41485U 98067JF  17088.87692783 +.27372728 +12750-4 +18082-3 0  9995
2 41485 051.6095 034.9427 0004361 251.9905 115.0502 16.53312317049553
Epoch (UTC): 29 March 2017 21:02:46
Eccentricity: 0.0004361
inclination: 51.6095°
perigee height: 128 km
apogee height: 133 km
right ascension of ascending node: 34.9427°
argument of perigee: 251.9905°
revolutions per day: 16.53312317
mean anomaly at epoch: 115.0502°
orbit number at epoch: 4955

The dashed part of the orbit path shows where the satellite is in the earth's shadow,  

DLR